Sunday, October 26, 2014
01:09 UTC
  |  Log In   |  Register Free
Airport Search:

Clayton Municipal Airport
(11A)

Clayton Municipal Airport Diagram
No Airport Diagram Available

FAA data valid effective September 18, 2014 - November 13, 2014 (unless otherwise noted).

 
 
 
 
 
 
 
 
 
 
 
 
 
 

Current Aviation Weather for Clayton Municipal Airport (11A)

METAR data is unavailable for 11A. The nearest METAR location is at KEUF (18.6 nm NE from 11A).

The most recent METAR observation for KEUF was updated at: 0013
METAR Summary (Translated METAR)
KEUF
252358Z AUTO 00000KT 10SM CLR 16/13 A3002 RMK AO2 SLP164 T01560128 10272 20156 53007 $
(18.6 nm NE from 11A)
KTOI
252353Z AUTO 00000KT 10SM CLR 17/11 A3005 RMK AO2 SLP174 T01670106 10261 20167 53005
(26.9 nm SW from 11A)
TAF Summary (Translated TAF)
KTOI
(45.4 nm SW from KEUF)
251915Z 2519/2618 33009KT P6SM SKC FM260000 00000KT P6SM SKC FM261500 30006KT P6SM SKC
  Airport Weather Conditions for 11A

Current weather conditions are
not available for 11A


The nearest NOAA weather station
is at EUF, (18.6 nm NE from 11A)
  
 Current Weather at EUF
65° F
Fair
North winds at 0.0 mph
EUF NOAA Radar

Pressure: 30.00 in
Humidity: 73%
Wind: Calm
Dew Point: 55.9°F
Visibility: 10.00 mi


Airport Weather Forecast for 11A

Translated METAR and TAF for KEUF
Translated METAR for KEUF (0104 UTC 26 October 2014)
found at http://aviationweather.gov/adds/metars/
 
METAR text: KEUF 260058Z AUTO 00000KT 10SM CLR 15/12 A3003 RMK AO2 SLP166 T01500122 $
Conditions at: KEUF (EUFAULA , AL, US) observed 0058 UTC 26 October 2014
Temperature: 15.0°C (59°F)
Dewpoint: 12.2°C (54°F) [RH = 83%]
Pressure (altimeter): 30.03 inches Hg (1017.0 mb)
[Sea-level pressure: 1016.6 mb]
Winds: calm
Visibility: 10 or more miles (16+ km)
Ceiling: at least 12,000 feet AGL
Clouds: sky clear below 12,000 feet AGL
Weather:
SOME DATA ABOVE MAY BE INACCURATE!!!
"$" is an indication the sensor requires maintenance
Translated TAF for KEUF

There is no translated TAF available for this airport

Find All Airport Services Find A Hotel Find A Rental Car Find A Golf Course Find A Restaurant $100 Hamburger



FBO's on the Field
FBO Company Facility Photos Services Transportation Aviation Fuel Prices: Prices include tax
Catering Weather Repair Courtesy Rental Type 100LL JetA JetA+ MOGAS 8087
 
Add another FBO Facility Photos Catering Weather Repair Courtesy Rental Type 100LL JetA JetA+ MOGAS 8087
Services Transportation Aviation Fuel Prices: Prices include tax
There are no FBO's currently reporting fuel at 11A. List your FBO now


model-print
model-print
model-print
model-print